Time,TemperatureF,DewpointF,PressureIn,WindDirection,WindDirectionDegrees,WindSpeedMPH,WindSpeedGustMPH,Humidity,HourlyPrecipIn,Conditions,Clouds,dailyrainin,SoftwareType,DateUTC
2013-11-07 00:01:00,41.2,37.6,30.11,NNW,337,0.0,0.0,87,0.00,,,0.18,WUHU21623XXSP,2013-11-07 05:01:00,
2013-11-07 00:10:00,41.2,37.6,30.11,NNW,337,0.0,0.0,87,0.00,,,0.00,WUHU21623XXSP,2013-11-07 05:10:00,
2013-11-07 00:15:00,41.2,37.6,30.11,NW,315,0.0,0.0,87,0.00,,,0.00,WUHU21623XXSP,2013-11-07 05:15:00,
2013-11-07 00:20:00,41.2,37.6,30.12,NNW,337,0.0,0.0,87,0.00,,,0.00,WUHU21623XXSP,2013-11-07 05:20:00,
2013-11-07 00:25:00,41.2,37.6,30.11,NW,315,0.0,0.0,87,0.00,,,0.00,WUHU21623XXSP,2013-11-07 05:25:00,
2013-11-07 00:30:00,41.2,37.6,30.11,WNW,292,0.0,0.0,87,0.00,,,0.00,WUHU21623XXSP,2013-11-07 05:30:00,
2013-11-07 00:35:00,41.2,37.6,30.11,NNW,337,0.0,0.0,87,0.00,,,0.00,WUHU21623XXSP,2013-11-07 05:35:00,
2013-11-07 00:40:00,41.0,37.4,30.11,NNW,337,0.0,0.0,87,0.00,,,0.00,WUHU21623XXSP,2013-11-07 05:40:00,
2013-11-07 00:45:00,41.0,37.4,30.11,WNW,292,0.0,0.0,87,0.00,,,0.00,WUHU21623XXSP,2013-11-07 05:45:00,
2013-11-07 00:50:00,40.8,37.2,30.12,WNW,292,0.0,0.0,87,0.00,,,0.00,WUHU21623XXSP,2013-11-07 05:50:00,
2013-11-07 00:55:00,40.8,37.2,30.12,WNW,292,0.0,0.0,87,0.00,,,0.00,WUHU21623XXSP,2013-11-07 05:55:00,
2013-11-07 01:00:00,40.8,37.2,30.12,NNW,337,0.0,0.0,87,0.00,,,0.00,WUHU21623XXSP,2013-11-07 06:00:00,
2013-11-07 01:05:00,40.8,37.2,30.12,NNW,337,0.0,0.0,87,0.00,,,0.00,WUHU21623XXSP,2013-11-07 06:05:00,
2013-11-07 01:14:00,40.8,37.2,30.12,NNW,337,0.0,0.0,87,0.00,,,0.00,WUHU21623XXSP,2013-11-07 06:14:00,
2013-11-07 01:19:00,40.8,36.9,30.13,NNW,337,0.0,0.0,86,0.00,,,0.00,WUHU21623XXSP,2013-11-07 06:19:00,
2013-11-07 01:24:00,40.8,36.9,30.13,WNW,292,0.0,0.0,86,0.00,,,0.00,WUHU21623XXSP,2013-11-07 06:24:00,
2013-11-07 01:29:00,40.8,36.9,30.13,WNW,292,0.0,0.0,86,0.00,,,0.00,WUHU21623XXSP,2013-11-07 06:29:00,
2013-11-07 01:34:00,40.8,36.9,30.13,NW,315,0.0,0.0,86,0.00,,,0.00,WUHU21623XXSP,2013-11-07 06:34:00,
2013-11-07 01:39:00,40.6,36.7,30.13,WNW,292,0.0,0.0,86,0.00,,,0.00,WUHU21623XXSP,2013-11-07 06:39:00,
2013-11-07 01:44:00,40.6,36.7,30.13,North,0,0.0,0.0,86,0.00,,,0.00,WUHU21623XXSP,2013-11-07 06:44:00,
2013-11-07 01:49:00,40.6,36.7,30.13,NW,315,0.0,0.0,86,0.00,,,0.00,WUHU21623XXSP,2013-11-07 06:49:00,
2013-11-07 01:54:00,40.6,36.7,30.13,North,0,0.0,0.0,86,0.00,,,0.00,WUHU21623XXSP,2013-11-07 06:54:00,
2013-11-07 01:59:00,40.5,36.6,30.13,WNW,292,0.0,0.0,86,0.00,,,0.00,WUHU21623XXSP,2013-11-07 06:59:00,
2013-11-07 02:04:00,40.5,36.6,30.13,WNW,292,0.0,0.0,86,0.00,,,0.00,WUHU21623XXSP,2013-11-07 07:04:00,
2013-11-07 02:10:00,40.5,36.6,30.13,WNW,292,0.0,0.0,86,0.00,,,0.00,WUHU21623XXSP,2013-11-07 07:10:00,
2013-11-07 02:15:00,40.3,36.4,30.14,NW,315,0.0,0.0,86,0.00,,,0.00,WUHU21623XXSP,2013-11-07 07:15:00,
2013-11-07 02:20:00,40.5,36.6,30.14,WNW,292,0.0,0.0,86,0.00,,,0.00,WUHU21623XXSP,2013-11-07 07:20:00,
2013-11-07 02:25:00,40.3,36.1,30.13,WNW,292,0.0,0.0,85,0.00,,,0.00,WUHU21623XXSP,2013-11-07 07:25:00,
2013-11-07 02:30:00,40.3,36.1,30.13,WNW,292,0.0,0.0,85,0.00,,,0.00,WUHU21623XXSP,2013-11-07 07:30:00,
2013-11-07 02:35:00,40.1,35.9,30.14,WNW,292,0.0,0.0,85,0.00,,,0.00,WUHU21623XXSP,2013-11-07 07:35:00,
2013-11-07 02:40:00,40.1,35.9,30.13,NW,315,0.0,0.0,85,0.00,,,0.00,WUHU21623XXSP,2013-11-07 07:40:00,
2013-11-07 02:45:00,39.9,35.7,30.13,WNW,292,0.0,0.0,85,0.00,,,0.00,WUHU21623XXSP,2013-11-07 07:45:00,
2013-11-07 02:50:00,39.7,35.6,30.13,NW,315,0.0,0.0,85,0.00,,,0.00,WUHU21623XXSP,2013-11-07 07:50:00,
2013-11-07 02:55:00,39.7,35.6,30.13,NW,315,0.0,0.0,85,0.00,,,0.00,WUHU21623XXSP,2013-11-07 07:55:00,
2013-11-07 03:00:00,39.6,35.4,30.13,NW,315,0.0,0.0,85,0.00,,,0.00,WUHU21623XXSP,2013-11-07 08:00:00,
2013-11-07 03:05:00,39.6,35.4,30.13,NW,315,0.0,0.0,85,0.00,,,0.00,WUHU21623XXSP,2013-11-07 08:05:00,
2013-11-07 03:10:00,39.6,35.4,30.13,NW,315,0.0,0.0,85,0.00,,,0.00,WUHU21623XXSP,2013-11-07 08:10:00,
2013-11-07 03:15:00,39.2,35.1,30.14,WNW,292,0.0,0.0,85,0.00,,,0.00,WUHU21623XXSP,2013-11-07 08:15:00,
2013-11-07 03:20:00,39.0,34.9,30.14,WNW,292,0.0,0.0,85,0.00,,,0.00,WUHU21623XXSP,2013-11-07 08:20:00,
2013-11-07 03:25:00,39.0,34.9,30.14,NW,315,0.0,0.0,85,0.00,,,0.00,WUHU21623XXSP,2013-11-07 08:25:00,
2013-11-07 03:30:00,38.8,34.7,30.14,NNW,337,0.0,0.0,85,0.00,,,0.00,WUHU21623XXSP,2013-11-07 08:30:00,
2013-11-07 03:35:00,38.5,34.3,30.14,NW,315,0.0,0.0,85,0.00,,,0.00,WUHU21623XXSP,2013-11-07 08:35:00,
2013-11-07 03:40:00,38.3,34.2,30.15,West,270,0.0,0.0,85,0.00,,,0.00,WUHU21623XXSP,2013-11-07 08:40:00,
2013-11-07 03:45:00,38.3,34.2,30.15,WNW,292,0.0,0.0,85,0.00,,,0.00,WUHU21623XXSP,2013-11-07 08:45:00,
2013-11-07 03:50:00,37.9,33.8,30.15,NW,315,0.0,0.0,85,0.00,,,0.00,WUHU21623XXSP,2013-11-07 08:50:00,
2013-11-07 03:55:00,37.8,33.6,30.15,WNW,292,0.0,0.0,85,0.00,,,0.00,WUHU21623XXSP,2013-11-07 08:55:00,
2013-11-07 04:00:00,37.8,33.6,30.16,NW,315,0.0,0.0,85,0.00,,,0.00,WUHU21623XXSP,2013-11-07 09:00:00,
2013-11-07 04:05:00,37.8,33.6,30.16,NW,315,0.0,0.0,85,0.00,,,0.00,WUHU21623XXSP,2013-11-07 09:05:00,
2013-11-07 04:10:00,37.8,33.6,30.16,NW,315,0.0,0.0,85,0.00,,,0.00,WUHU21623XXSP,2013-11-07 09:10:00,
2013-11-07 04:15:00,36.9,32.4,30.17,NW,315,0.0,0.0,84,0.00,,,0.00,WUHU21623XXSP,2013-11-07 09:15:00,
2013-11-07 04:20:00,36.5,32.1,30.17,NW,315,0.0,0.0,84,0.00,,,0.00,WUHU21623XXSP,2013-11-07 09:20:00,
2013-11-07 04:25:00,36.3,31.9,30.16,WNW,292,0.0,0.0,84,0.00,,,0.00,WUHU21623XXSP,2013-11-07 09:25:00,
2013-11-07 04:30:00,36.1,31.7,30.17,NW,315,0.0,0.0,84,0.00,,,0.00,WUHU21623XXSP,2013-11-07 09:30:00,
2013-11-07 04:35:00,36.0,31.5,30.17,NW,315,0.0,0.0,84,0.00,,,0.00,WUHU21623XXSP,2013-11-07 09:35:00,
2013-11-07 04:40:00,35.8,31.4,30.17,NNW,337,0.0,0.0,84,0.00,,,0.00,WUHU21623XXSP,2013-11-07 09:40:00,
2013-11-07 04:45:00,35.6,31.2,30.17,NW,315,0.0,0.0,84,0.00,,,0.00,WUHU21623XXSP,2013-11-07 09:45:00,
2013-11-07 04:50:00,35.4,31.0,30.17,WNW,292,0.0,0.0,84,0.00,,,0.00,WUHU21623XXSP,2013-11-07 09:50:00,
2013-11-07 04:55:00,35.4,31.0,30.17,NW,315,0.0,0.0,84,0.00,,,0.00,WUHU21623XXSP,2013-11-07 09:55:00,
2013-11-07 05:00:00,35.4,31.0,30.18,NW,315,0.0,0.0,84,0.00,,,0.00,WUHU21623XXSP,2013-11-07 10:00:00,
2013-11-07 05:05:00,35.4,31.0,30.18,NW,315,0.0,0.0,84,0.00,,,0.00,WUHU21623XXSP,2013-11-07 10:05:00,
2013-11-07 05:10:00,35.4,31.0,30.18,NW,315,0.0,0.0,84,0.00,,,0.00,WUHU21623XXSP,2013-11-07 10:10:00,
2013-11-07 05:15:00,34.9,30.5,30.18,WNW,292,0.0,0.0,84,0.00,,,0.00,WUHU21623XXSP,2013-11-07 10:15:00,
2013-11-07 05:20:00,34.7,30.3,30.19,WNW,292,0.0,0.0,84,0.00,,,0.00,WUHU21623XXSP,2013-11-07 10:20:00,
2013-11-07 05:25:00,34.5,30.1,30.19,WNW,292,0.0,0.0,84,0.00,,,0.00,WUHU21623XXSP,2013-11-07 10:25:00,
2013-11-07 05:30:00,34.3,29.9,30.19,WNW,292,0.0,0.0,84,0.00,,,0.00,WUHU21623XXSP,2013-11-07 10:30:00,
2013-11-07 05:35:00,34.3,29.9,30.20,NNW,337,0.0,0.0,84,0.00,,,0.00,WUHU21623XXSP,2013-11-07 10:35:00,
2013-11-07 05:40:00,34.3,29.9,30.20,NW,315,0.0,0.0,84,0.00,,,0.00,WUHU21623XXSP,2013-11-07 10:40:00,
2013-11-07 05:45:00,34.3,29.9,30.20,NW,315,0.0,0.0,84,0.00,,,0.00,WUHU21623XXSP,2013-11-07 10:45:00,
2013-11-07 05:50:00,34.3,29.9,30.21,NW,315,0.0,0.0,84,0.00,,,0.00,WUHU21623XXSP,2013-11-07 10:50:00,
2013-11-07 05:55:00,34.2,29.7,30.21,NW,315,0.0,0.0,84,0.00,,,0.00,WUHU21623XXSP,2013-11-07 10:55:00,
2013-11-07 06:00:00,34.0,29.6,30.20,NNW,337,0.0,0.0,84,0.00,,,0.00,WUHU21623XXSP,2013-11-07 11:00:00,
2013-11-07 06:05:00,34.0,29.6,30.20,NNW,337,0.0,0.0,84,0.00,,,0.00,WUHU21623XXSP,2013-11-07 11:05:00,
2013-11-07 06:10:00,34.0,29.6,30.20,NNW,337,0.0,0.0,84,0.00,,,0.00,WUHU21623XXSP,2013-11-07 11:10:00,
2013-11-07 06:15:00,33.6,29.2,30.21,NW,315,0.0,0.0,84,0.00,,,0.00,WUHU21623XXSP,2013-11-07 11:15:00,
2013-11-07 06:20:00,33.4,29.0,30.21,NNW,337,0.0,0.0,84,0.00,,,0.00,WUHU21623XXSP,2013-11-07 11:20:00,
2013-11-07 06:25:00,33.4,29.0,30.21,NW,315,0.0,0.0,84,0.00,,,0.00,WUHU21623XXSP,2013-11-07 11:25:00,
2013-11-07 06:30:00,33.3,28.9,30.21,NW,315,0.0,0.0,84,0.00,,,0.00,WUHU21623XXSP,2013-11-07 11:30:00,
2013-11-07 06:34:00,33.3,28.9,30.21,NW,315,0.0,0.0,84,0.00,,,0.00,WUHU21623XXSP,2013-11-07 11:34:00,
2013-11-07 06:39:00,33.1,28.7,30.21,NW,315,0.0,0.0,84,0.00,,,0.00,WUHU21623XXSP,2013-11-07 11:39:00,
2013-11-07 06:44:00,32.9,28.6,30.21,NW,315,0.0,0.0,84,0.00,,,0.00,WUHU21623XXSP,2013-11-07 11:44:00,
2013-11-07 06:49:00,32.7,28.4,30.21,WNW,292,0.0,0.0,84,0.00,,,0.00,WUHU21623XXSP,2013-11-07 11:49:00,
2013-11-07 06:54:00,32.7,28.4,30.21,WNW,292,0.0,0.0,84,0.00,,,0.00,WUHU21623XXSP,2013-11-07 11:54:00,
2013-11-07 06:59:00,32.7,28.4,30.22,NW,315,0.0,0.0,84,0.00,,,0.00,WUHU21623XXSP,2013-11-07 11:59:00,
2013-11-07 07:04:00,32.5,28.2,30.22,NW,315,0.0,0.0,84,0.00,,,0.00,WUHU21623XXSP,2013-11-07 12:04:00,
2013-11-07 07:09:00,32.4,28.1,30.22,WNW,292,0.0,0.0,84,0.00,,,0.00,WUHU21623XXSP,2013-11-07 12:09:00,
2013-11-07 07:14:00,32.2,27.9,30.22,WSW,247,0.0,0.0,84,0.00,,,0.00,WUHU21623XXSP,2013-11-07 12:14:00,
2013-11-07 07:19:00,32.2,27.9,30.22,WSW,247,0.0,0.0,84,0.00,,,0.00,WUHU21623XXSP,2013-11-07 12:19:00,
2013-11-07 07:24:00,32.2,27.9,30.22,WSW,247,0.0,0.0,84,0.00,,,0.00,WUHU21623XXSP,2013-11-07 12:24:00,
2013-11-07 07:29:00,31.8,27.6,30.22,WSW,247,0.0,0.0,84,0.00,,,0.00,WUHU21623XXSP,2013-11-07 12:29:00,
2013-11-07 07:34:00,31.8,27.6,30.23,WSW,247,0.0,0.0,84,0.00,,,0.00,WUHU21623XXSP,2013-11-07 12:34:00,
2013-11-07 07:39:00,31.8,27.6,30.23,WSW,247,0.0,0.0,84,0.00,,,0.00,WUHU21623XXSP,2013-11-07 12:39:00,
2013-11-07 07:44:00,31.6,27.4,30.23,WSW,247,0.0,0.0,84,0.00,,,0.00,WUHU21623XXSP,2013-11-07 12:44:00,
2013-11-07 07:49:00,31.6,27.4,30.23,WNW,292,0.0,0.0,84,0.00,,,0.00,WUHU21623XXSP,2013-11-07 12:49:00,
2013-11-07 07:54:00,31.6,27.4,30.23,WNW,292,0.0,0.0,84,0.00,,,0.00,WUHU21623XXSP,2013-11-07 12:54:00,
2013-11-07 07:59:00,31.6,27.4,30.23,WNW,292,0.0,0.0,84,0.00,,,0.00,WUHU21623XXSP,2013-11-07 12:59:00,
2013-11-07 08:04:00,31.6,27.4,30.23,WNW,292,0.0,0.0,84,0.00,,,0.00,WUHU21623XXSP,2013-11-07 13:04:00,
2013-11-07 08:09:00,31.8,27.6,30.24,WNW,292,0.0,0.0,84,0.00,,,0.00,WUHU21623XXSP,2013-11-07 13:09:00,
2013-11-07 08:14:00,31.8,27.6,30.24,WNW,292,0.0,0.0,84,0.00,,,0.00,WUHU21623XXSP,2013-11-07 13:14:00,
2013-11-07 08:19:00,31.8,27.6,30.24,NW,315,0.0,0.0,84,0.00,,,0.00,WUHU21623XXSP,2013-11-07 13:19:00,
2013-11-07 08:24:00,32.2,27.9,30.24,WNW,292,0.0,0.0,84,0.00,,,0.00,WUHU21623XXSP,2013-11-07 13:24:00,
2013-11-07 08:29:00,32.2,27.9,30.24,NW,315,0.0,0.0,84,0.00,,,0.00,WUHU21623XXSP,2013-11-07 13:29:00,
2013-11-07 08:34:00,32.7,28.4,30.24,WNW,292,0.0,0.0,84,0.00,,,0.00,WUHU21623XXSP,2013-11-07 13:34:00,
2013-11-07 08:39:00,33.6,29.5,30.25,WNW,292,0.0,0.0,85,0.00,,,0.00,WUHU21623XXSP,2013-11-07 13:39:00,
2013-11-07 08:44:00,33.8,29.4,30.25,WNW,292,0.0,0.0,84,0.00,,,0.00,WUHU21623XXSP,2013-11-07 13:44:00,
2013-11-07 08:49:00,34.2,29.7,30.25,WNW,292,0.0,0.0,84,0.00,,,0.00,WUHU21623XXSP,2013-11-07 13:49:00,
2013-11-07 08:54:00,34.5,30.1,30.25,West,270,0.0,0.0,84,0.00,,,0.00,WUHU21623XXSP,2013-11-07 13:54:00,
2013-11-07 08:59:00,34.9,30.5,30.25,NW,315,0.0,0.0,84,0.00,,,0.00,WUHU21623XXSP,2013-11-07 13:59:00,
2013-11-07 09:04:00,36.1,31.7,30.25,NNW,337,0.0,0.0,84,0.00,,,0.00,WUHU21623XXSP,2013-11-07 14:04:00,
2013-11-07 09:09:00,36.3,31.9,30.25,WNW,292,0.0,0.0,84,0.00,,,0.00,WUHU21623XXSP,2013-11-07 14:09:00,
2013-11-07 09:14:00,37.8,33.3,30.26,West,270,0.0,0.0,84,0.00,,,0.00,WUHU21623XXSP,2013-11-07 14:14:00,
2013-11-07 09:19:00,38.3,33.9,30.26,WNW,292,0.0,0.0,84,0.00,,,0.00,WUHU21623XXSP,2013-11-07 14:19:00,
2013-11-07 09:24:00,39.0,34.6,30.25,WNW,292,0.0,0.0,84,0.00,,,0.00,WUHU21623XXSP,2013-11-07 14:24:00,
2013-11-07 09:29:00,39.0,34.3,30.26,NNW,337,0.0,0.0,83,0.00,,,0.00,WUHU21623XXSP,2013-11-07 14:29:00,
2013-11-07 09:34:00,39.6,34.5,30.25,NW,315,0.0,0.0,82,0.00,,,0.00,WUHU21623XXSP,2013-11-07 14:34:00,
2013-11-07 09:39:00,39.9,34.8,30.24,NW,315,0.0,0.0,82,0.00,,,0.00,WUHU21623XXSP,2013-11-07 14:39:00,
2013-11-07 09:44:00,40.3,35.2,30.25,NW,315,0.0,0.0,82,0.00,,,0.00,WUHU21623XXSP,2013-11-07 14:44:00,
2013-11-07 09:49:00,40.3,34.9,30.24,WNW,292,0.0,0.0,81,0.00,,,0.00,WUHU21623XXSP,2013-11-07 14:49:00,
2013-11-07 09:54:00,40.6,35.2,30.25,WNW,292,0.0,0.0,81,0.00,,,0.00,WUHU21623XXSP,2013-11-07 14:54:00,
2013-11-07 09:59:00,40.5,34.8,30.25,SW,225,0.0,0.0,80,0.00,,,0.00,WUHU21623XXSP,2013-11-07 14:59:00,
2013-11-07 10:04:00,40.5,34.8,30.26,SW,225,0.0,0.0,80,0.00,,,0.00,WUHU21623XXSP,2013-11-07 15:04:00,
2013-11-07 10:09:00,40.6,34.9,30.26,WNW,292,0.0,0.0,80,0.00,,,0.00,WUHU21623XXSP,2013-11-07 15:09:00,
2013-11-07 10:14:00,40.8,35.1,30.26,WNW,292,0.0,0.0,80,0.00,,,0.00,WUHU21623XXSP,2013-11-07 15:14:00,
2013-11-07 10:19:00,40.8,35.1,30.26,NW,315,0.0,0.0,80,0.00,,,0.00,WUHU21623XXSP,2013-11-07 15:19:00,
2013-11-07 10:24:00,41.4,35.3,30.26,NW,315,0.0,0.0,79,0.00,,,0.00,WUHU21623XXSP,2013-11-07 15:24:00,
2013-11-07 10:29:00,41.4,35.3,30.27,NNW,337,0.0,0.0,79,0.00,,,0.00,WUHU21623XXSP,2013-11-07 15:29:00,
2013-11-07 10:34:00,41.5,35.5,30.27,NW,315,0.0,0.0,79,0.00,,,0.00,WUHU21623XXSP,2013-11-07 15:34:00,
2013-11-07 10:39:00,41.7,35.3,30.26,WNW,292,0.0,0.0,78,0.00,,,0.00,WUHU21623XXSP,2013-11-07 15:39:00,
2013-11-07 10:44:00,41.9,35.5,30.26,NNW,337,0.0,0.0,78,0.00,,,0.00,WUHU21623XXSP,2013-11-07 15:44:00,
2013-11-07 10:49:00,41.9,35.5,30.26,WSW,247,0.0,0.0,78,0.00,,,0.00,WUHU21623XXSP,2013-11-07 15:49:00,
2013-11-07 10:54:00,42.4,36.0,30.26,West,270,0.0,0.0,78,0.00,,,0.00,WUHU21623XXSP,2013-11-07 15:54:00,
2013-11-07 10:59:00,42.4,35.7,30.26,West,270,0.0,0.0,77,0.00,,,0.00,WUHU21623XXSP,2013-11-07 15:59:00,
2013-11-07 11:04:00,42.5,35.9,30.26,NW,315,0.0,0.0,77,0.00,,,0.00,WUHU21623XXSP,2013-11-07 16:04:00,
2013-11-07 11:09:00,42.6,35.3,30.26,NW,315,0.0,0.0,75,0.00,,,0.00,WUHU21623XXSP,2013-11-07 16:09:00,
2013-11-07 11:14:00,42.4,34.8,30.26,NW,315,0.0,0.0,74,0.00,,,0.00,WUHU21623XXSP,2013-11-07 16:14:00,
2013-11-07 11:19:00,42.1,34.5,30.26,NW,315,0.0,0.0,74,0.00,,,0.00,WUHU21623XXSP,2013-11-07 16:19:00,
2013-11-07 11:24:00,42.1,34.4,30.26,West,270,0.0,0.0,74,0.00,,,0.00,WUHU21623XXSP,2013-11-07 16:24:00,
2013-11-07 11:29:00,41.9,34.3,30.26,WNW,292,0.0,0.0,74,0.00,,,0.00,WUHU21623XXSP,2013-11-07 16:29:00,
2013-11-07 11:34:00,41.6,33.4,30.26,West,270,0.0,0.0,72,0.00,,,0.00,WUHU21623XXSP,2013-11-07 16:34:00,
2013-11-07 11:39:00,41.6,32.9,30.26,WNW,292,0.0,0.0,71,0.00,,,0.00,WUHU21623XXSP,2013-11-07 16:39:00,
2013-11-07 11:44:00,41.3,32.3,30.26,WSW,247,0.0,0.0,70,0.00,,,0.00,WUHU21623XXSP,2013-11-07 16:44:00,
2013-11-07 11:49:00,41.3,32.3,30.25,WNW,292,0.0,0.0,70,0.00,,,0.00,WUHU21623XXSP,2013-11-07 16:49:00,
2013-11-07 11:54:00,41.0,31.7,30.25,North,0,0.0,0.0,69,0.00,,,0.00,WUHU21623XXSP,2013-11-07 16:54:00,
2013-11-07 11:59:00,40.7,31.1,30.25,WNW,292,0.0,0.0,68,0.00,,,0.00,WUHU21623XXSP,2013-11-07 16:59:00,
2013-11-07 12:04:00,40.7,31.0,30.24,NW,315,0.0,0.0,68,0.00,,,0.00,WUHU21623XXSP,2013-11-07 17:04:00,
2013-11-07 12:09:00,40.4,30.4,30.25,NW,315,0.0,0.0,67,0.00,,,0.00,WUHU21623XXSP,2013-11-07 17:09:00,
2013-11-07 12:14:00,40.4,30.7,30.24,NW,315,0.0,0.0,68,0.00,,,0.00,WUHU21623XXSP,2013-11-07 17:14:00,
2013-11-07 12:19:00,40.5,30.9,30.24,North,0,0.0,0.0,68,0.00,,,0.00,WUHU21623XXSP,2013-11-07 17:19:00,
2013-11-07 12:24:00,40.6,31.0,30.23,West,270,0.0,0.0,68,0.00,,,0.00,WUHU21623XXSP,2013-11-07 17:24:00,
2013-11-07 12:29:00,40.8,31.1,30.24,West,270,0.0,0.0,68,0.00,,,0.00,WUHU21623XXSP,2013-11-07 17:29:00,
2013-11-07 12:34:00,41.1,31.4,30.23,West,270,0.0,0.0,68,0.00,,,0.00,WUHU21623XXSP,2013-11-07 17:34:00,
2013-11-07 12:39:00,40.9,30.8,30.23,WSW,247,0.0,0.0,67,0.00,,,0.00,WUHU21623XXSP,2013-11-07 17:39:00,
2013-11-07 12:44:00,40.7,29.9,30.23,WNW,292,0.0,0.0,65,0.00,,,0.00,WUHU21623XXSP,2013-11-07 17:44:00,
2013-11-07 12:49:00,40.7,29.9,30.22,NW,315,0.0,0.0,65,0.00,,,0.00,WUHU21623XXSP,2013-11-07 17:49:00,
2013-11-07 12:54:00,40.7,29.6,30.22,West,270,0.0,0.0,64,0.00,,,0.00,WUHU21623XXSP,2013-11-07 17:54:00,
2013-11-07 12:58:00,40.8,29.2,30.23,West,270,0.0,0.0,63,0.00,,,0.00,WUHU21623XXSP,2013-11-07 17:58:00,
2013-11-07 13:03:00,40.6,29.1,30.22,WNW,292,0.0,0.0,63,0.00,,,0.00,WUHU21623XXSP,2013-11-07 18:03:00,
2013-11-07 13:08:00,40.6,29.1,30.22,NW,315,0.0,0.0,63,0.00,,,0.00,WUHU21623XXSP,2013-11-07 18:08:00,
2013-11-07 13:13:00,40.7,28.7,30.22,WNW,292,0.0,0.0,62,0.00,,,0.00,WUHU21623XXSP,2013-11-07 18:13:00,
2013-11-07 13:18:00,40.6,28.6,30.22,NNW,337,0.0,0.0,62,0.00,,,0.00,WUHU21623XXSP,2013-11-07 18:18:00,
2013-11-07 13:23:00,40.5,28.1,30.21,NNW,337,0.0,0.0,61,0.00,,,0.00,WUHU21623XXSP,2013-11-07 18:23:00,
2013-11-07 13:28:00,40.4,27.6,30.21,WSW,247,0.0,0.0,60,0.00,,,0.00,WUHU21623XXSP,2013-11-07 18:28:00,
2013-11-07 13:33:00,40.3,27.1,30.21,WSW,247,0.0,0.0,59,0.00,,,0.00,WUHU21623XXSP,2013-11-07 18:33:00,
2013-11-07 13:38:00,40.2,27.1,30.21,NW,315,0.0,0.0,59,0.00,,,0.00,WUHU21623XXSP,2013-11-07 18:38:00,
2013-11-07 13:43:00,40.0,26.9,30.21,West,270,0.0,0.0,59,0.00,,,0.00,WUHU21623XXSP,2013-11-07 18:43:00,
2013-11-07 13:48:00,40.1,27.4,30.21,West,270,0.0,0.0,60,0.00,,,0.00,WUHU21623XXSP,2013-11-07 18:48:00,
2013-11-07 13:53:00,40.3,27.2,30.21,NNW,337,0.0,0.0,59,0.00,,,0.00,WUHU21623XXSP,2013-11-07 18:53:00,
2013-11-07 13:58:00,40.3,26.7,30.20,NW,315,0.0,0.0,58,0.00,,,0.00,WUHU21623XXSP,2013-11-07 18:58:00,
2013-11-07 14:03:00,40.5,26.9,30.21,WNW,292,0.0,0.0,58,0.00,,,0.00,WUHU21623XXSP,2013-11-07 19:03:00,
2013-11-07 14:08:00,40.5,26.9,30.21,WNW,292,0.0,0.0,58,0.00,,,0.00,WUHU21623XXSP,2013-11-07 19:08:00,
2013-11-07 14:13:00,40.7,27.2,30.21,West,270,0.0,0.0,58,0.00,,,0.00,WUHU21623XXSP,2013-11-07 19:13:00,
2013-11-07 14:18:00,40.9,26.9,30.20,WNW,292,0.0,0.0,57,0.00,,,0.00,WUHU21623XXSP,2013-11-07 19:18:00,
2013-11-07 14:23:00,40.9,26.9,30.20,NW,315,0.0,0.0,57,0.00,,,0.00,WUHU21623XXSP,2013-11-07 19:23:00,
2013-11-07 14:28:00,41.0,27.0,30.20,WNW,292,0.0,0.0,57,0.00,,,0.00,WUHU21623XXSP,2013-11-07 19:28:00,
2013-11-07 14:33:00,41.1,27.1,30.20,WNW,292,0.0,0.0,57,0.00,,,0.00,WUHU21623XXSP,2013-11-07 19:33:00,
2013-11-07 14:38:00,41.4,27.3,30.20,West,270,0.0,0.0,57,0.00,,,0.00,WUHU21623XXSP,2013-11-07 19:38:00,
2013-11-07 14:43:00,41.5,27.4,30.19,WNW,292,0.0,0.0,57,0.00,,,0.00,WUHU21623XXSP,2013-11-07 19:43:00,
2013-11-07 14:48:00,41.6,27.5,30.20,WNW,292,0.0,0.0,57,0.00,,,0.00,WUHU21623XXSP,2013-11-07 19:48:00,
2013-11-07 14:53:00,41.9,27.9,30.19,WNW,292,0.0,0.0,57,0.00,,,0.00,WUHU21623XXSP,2013-11-07 19:53:00,
2013-11-07 14:58:00,42.3,28.2,30.19,NNW,337,0.0,0.0,57,0.00,,,0.00,WUHU21623XXSP,2013-11-07 19:58:00,
2013-11-07 15:03:00,42.4,27.4,30.19,NW,315,0.0,0.0,55,0.00,,,0.00,WUHU21623XXSP,2013-11-07 20:03:00,
2013-11-07 15:08:00,42.9,28.3,30.19,NW,315,0.0,0.0,56,0.00,,,0.00,WUHU21623XXSP,2013-11-07 20:08:00,
2013-11-07 15:13:00,43.1,28.9,30.19,WNW,292,0.0,0.0,57,0.00,,,0.00,WUHU21623XXSP,2013-11-07 20:13:00,
2013-11-07 15:18:00,43.7,29.5,30.19,West,270,0.0,0.0,57,0.00,,,0.00,WUHU21623XXSP,2013-11-07 20:18:00,
2013-11-07 15:23:00,43.9,29.2,30.19,WSW,247,0.0,0.0,56,0.00,,,0.00,WUHU21623XXSP,2013-11-07 20:23:00,
2013-11-07 15:28:00,43.7,28.6,30.19,NW,315,0.0,0.0,55,0.00,,,0.00,WUHU21623XXSP,2013-11-07 20:28:00,
2013-11-07 15:33:00,43.6,29.0,30.18,NW,315,0.0,0.0,56,0.00,,,0.00,WUHU21623XXSP,2013-11-07 20:33:00,
2013-11-07 15:38:00,43.4,28.8,30.19,NW,315,0.0,0.0,56,0.00,,,0.00,WUHU21623XXSP,2013-11-07 20:38:00,
2013-11-07 15:43:00,43.4,28.7,30.19,NW,315,0.0,0.0,56,0.00,,,0.00,WUHU21623XXSP,2013-11-07 20:43:00,
2013-11-07 15:48:00,43.0,28.4,30.19,NW,315,0.0,0.0,56,0.00,,,0.00,WUHU21623XXSP,2013-11-07 20:48:00,
2013-11-07 15:53:00,43.0,28.8,30.19,WNW,292,0.0,0.0,57,0.00,,,0.00,WUHU21623XXSP,2013-11-07 20:53:00,
2013-11-07 15:58:00,43.2,29.0,30.19,NW,315,0.0,0.0,57,0.00,,,0.00,WUHU21623XXSP,2013-11-07 20:58:00,
2013-11-07 16:03:00,43.3,29.1,30.19,WNW,292,0.0,0.0,57,0.00,,,0.00,WUHU21623XXSP,2013-11-07 21:03:00,
2013-11-07 16:08:00,43.0,29.2,30.19,WNW,292,0.0,0.0,58,0.00,,,0.00,WUHU21623XXSP,2013-11-07 21:08:00,
2013-11-07 16:13:00,43.2,29.9,30.19,WNW,292,0.0,0.0,59,0.00,,,0.00,WUHU21623XXSP,2013-11-07 21:13:00,
2013-11-07 16:18:00,43.2,29.9,30.19,NW,315,0.0,0.0,59,0.00,,,0.00,WUHU21623XXSP,2013-11-07 21:18:00,
2013-11-07 16:23:00,43.5,30.2,30.19,WNW,292,0.0,0.0,59,0.00,,,0.00,WUHU21623XXSP,2013-11-07 21:23:00,
2013-11-07 16:28:00,43.2,29.9,30.19,NW,315,0.0,0.0,59,0.00,,,0.00,WUHU21623XXSP,2013-11-07 21:28:00,
2013-11-07 16:33:00,43.5,30.6,30.19,NW,315,0.0,0.0,60,0.00,,,0.00,WUHU21623XXSP,2013-11-07 21:33:00,
2013-11-07 16:38:00,43.5,30.6,30.19,West,270,0.0,0.0,60,0.00,,,0.00,WUHU21623XXSP,2013-11-07 21:38:00,
2013-11-07 16:43:00,43.4,30.5,30.19,WSW,247,0.0,0.0,60,0.00,,,0.00,WUHU21623XXSP,2013-11-07 21:43:00,
2013-11-07 16:48:00,43.7,30.8,30.19,WSW,247,0.0,0.0,60,0.00,,,0.00,WUHU21623XXSP,2013-11-07 21:48:00,
2013-11-07 16:53:00,44.0,31.1,30.19,WSW,247,0.0,0.0,60,0.00,,,0.00,WUHU21623XXSP,2013-11-07 21:53:00,
2013-11-07 16:58:00,44.0,31.5,30.19,WSW,247,0.0,0.0,61,0.00,,,0.00,WUHU21623XXSP,2013-11-07 21:58:00,
2013-11-07 17:03:00,44.1,31.5,30.19,WNW,292,0.0,0.0,61,0.00,,,0.00,WUHU21623XXSP,2013-11-07 22:03:00,
2013-11-07 17:08:00,43.9,31.3,30.19,WNW,292,0.0,0.0,61,0.00,,,0.00,WUHU21623XXSP,2013-11-07 22:08:00,
2013-11-07 17:13:00,43.9,31.3,30.19,WNW,292,0.0,0.0,61,0.00,,,0.00,WUHU21623XXSP,2013-11-07 22:13:00,
2013-11-07 17:18:00,43.9,31.3,30.19,WNW,292,0.0,0.0,61,0.00,,,0.00,WUHU21623XXSP,2013-11-07 22:18:00,
2013-11-07 17:23:00,43.9,31.3,30.19,WNW,292,0.0,0.0,61,0.00,,,0.00,WUHU21623XXSP,2013-11-07 22:23:00,
2013-11-07 17:25:00,43.9,31.3,30.19,North,0,0.0,0.0,61,0.00,,,0.00,WUHU21623XXSP,2013-11-07 22:25:00,
2013-11-07 17:28:00,43.9,31.3,30.19,North,0,0.0,0.0,61,0.00,,,0.00,WUHU21623XXSP,2013-11-07 22:28:00,
2013-11-07 17:33:00,43.9,31.3,30.19,North,0,0.0,0.0,61,0.00,,,0.00,WUHU21623XXSP,2013-11-07 22:33:00,
2013-11-07 17:38:00,43.3,31.6,30.20,West,270,0.0,0.0,63,0.00,,,0.00,WUHU21623XXSP,2013-11-07 22:38:00,
2013-11-07 17:43:00,43.2,31.8,30.20,SW,225,0.0,0.0,64,0.00,,,0.00,WUHU21623XXSP,2013-11-07 22:43:00,
2013-11-07 17:48:00,43.2,31.8,30.20,NW,315,0.0,0.0,64,0.00,,,0.00,WUHU21623XXSP,2013-11-07 22:48:00,
2013-11-07 17:53:00,43.0,31.6,30.20,WNW,292,0.0,0.0,64,0.00,,,0.00,WUHU21623XXSP,2013-11-07 22:53:00,
2013-11-07 17:58:00,43.0,32.0,30.20,NW,315,0.0,0.0,65,0.00,,,0.00,WUHU21623XXSP,2013-11-07 22:58:00,
2013-11-07 18:03:00,42.8,31.8,30.20,WNW,292,0.0,0.0,65,0.00,,,0.00,WUHU21623XXSP,2013-11-07 23:03:00,
2013-11-07 18:08:00,42.6,31.6,30.19,WNW,292,0.0,0.0,65,0.00,,,0.00,WUHU21623XXSP,2013-11-07 23:08:00,
2013-11-07 18:13:00,42.6,31.6,30.19,NW,315,0.0,0.0,65,0.00,,,0.00,WUHU21623XXSP,2013-11-07 23:13:00,
2013-11-07 18:18:00,42.6,32.0,30.19,West,270,0.0,0.0,66,0.00,,,0.00,WUHU21623XXSP,2013-11-07 23:18:00,
2013-11-07 18:23:00,42.6,32.0,30.19,WNW,292,0.0,0.0,66,0.00,,,0.00,WUHU21623XXSP,2013-11-07 23:23:00,
2013-11-07 18:28:00,42.4,31.9,30.19,NW,315,0.0,0.0,66,0.00,,,0.00,WUHU21623XXSP,2013-11-07 23:28:00,
2013-11-07 18:33:00,42.4,31.9,30.19,NNW,337,0.0,0.0,66,0.00,,,0.00,WUHU21623XXSP,2013-11-07 23:33:00,
2013-11-07 18:38:00,42.4,32.3,30.19,NW,315,0.0,0.0,67,0.00,,,0.00,WUHU21623XXSP,2013-11-07 23:38:00,
2013-11-07 18:43:00,42.3,32.1,30.20,WSW,247,0.0,0.0,67,0.00,,,0.00,WUHU21623XXSP,2013-11-07 23:43:00,
2013-11-07 18:48:00,42.3,32.1,30.20,WNW,292,0.0,0.0,67,0.00,,,0.00,WUHU21623XXSP,2013-11-07 23:48:00,
2013-11-07 18:53:00,42.1,31.9,30.20,NW,315,0.0,0.0,67,0.00,,,0.00,WUHU21623XXSP,2013-11-07 23:53:00,
2013-11-07 18:58:00,42.1,31.9,30.20,WNW,292,0.0,0.0,67,0.00,,,0.00,WUHU21623XXSP,2013-11-07 23:58:00,
2013-11-07 19:03:00,42.1,32.3,30.20,SW,225,0.0,0.0,68,0.00,,,0.00,WUHU21623XXSP,2013-11-08 00:03:00,
2013-11-07 19:08:00,42.1,32.3,30.20,NW,315,0.0,0.0,68,0.00,,,0.00,WUHU21623XXSP,2013-11-08 00:08:00,
2013-11-07 19:13:00,42.1,32.3,30.19,WNW,292,0.0,0.0,68,0.00,,,0.00,WUHU21623XXSP,2013-11-08 00:13:00,
2013-11-07 19:18:00,41.9,32.1,30.20,WNW,292,0.0,0.0,68,0.00,,,0.00,WUHU21623XXSP,2013-11-08 00:18:00,
2013-11-07 19:23:00,41.9,32.1,30.19,WSW,247,0.0,0.0,68,0.00,,,0.00,WUHU21623XXSP,2013-11-08 00:23:00,
2013-11-07 19:28:00,41.7,31.9,30.19,WNW,292,0.0,0.0,68,0.00,,,0.00,WUHU21623XXSP,2013-11-08 00:28:00,
2013-11-07 19:33:00,41.7,31.9,30.19,WNW,292,0.0,0.0,68,0.00,,,0.00,WUHU21623XXSP,2013-11-08 00:33:00,
2013-11-07 19:38:00,41.7,31.9,30.19,WNW,292,0.0,0.0,68,0.00,,,0.00,WUHU21623XXSP,2013-11-08 00:38:00,
2013-11-07 19:43:00,41.7,32.3,30.19,WNW,292,0.0,0.0,69,0.00,,,0.00,WUHU21623XXSP,2013-11-08 00:43:00,
2013-11-07 19:48:00,41.5,32.1,30.19,West,270,0.0,0.0,69,0.00,,,0.00,WUHU21623XXSP,2013-11-08 00:48:00,
2013-11-07 19:53:00,41.5,32.1,30.19,WNW,292,0.0,0.0,69,0.00,,,0.00,WUHU21623XXSP,2013-11-08 00:53:00,
2013-11-07 19:58:00,41.5,32.1,30.19,West,270,0.0,0.0,69,0.00,,,0.00,WUHU21623XXSP,2013-11-08 00:58:00,
2013-11-07 20:03:00,41.5,32.1,30.18,West,270,0.0,0.0,69,0.00,,,0.00,WUHU21623XXSP,2013-11-08 01:03:00,
2013-11-07 20:08:00,41.4,32.0,30.19,West,270,0.0,0.0,69,0.00,,,0.00,WUHU21623XXSP,2013-11-08 01:08:00,
2013-11-07 20:13:00,41.4,32.0,30.19,WNW,292,0.0,0.0,69,0.00,,,0.00,WUHU21623XXSP,2013-11-08 01:13:00,
2013-11-07 20:18:00,41.4,32.0,30.18,WNW,292,0.0,0.0,69,0.00,,,0.00,WUHU21623XXSP,2013-11-08 01:18:00,
2013-11-07 20:23:00,41.2,32.2,30.19,West,270,0.0,0.0,70,0.00,,,0.00,WUHU21623XXSP,2013-11-08 01:23:00,
2013-11-07 20:28:00,41.2,32.2,30.19,West,270,0.0,0.0,70,0.00,,,0.00,WUHU21623XXSP,2013-11-08 01:28:00,
2013-11-07 20:33:00,41.2,32.2,30.19,West,270,0.0,0.0,70,0.00,,,0.00,WUHU21623XXSP,2013-11-08 01:33:00,
2013-11-07 20:38:00,40.8,31.8,30.19,West,270,0.0,0.0,70,0.00,,,0.00,WUHU21623XXSP,2013-11-08 01:38:00,
2013-11-07 20:43:00,40.8,31.8,30.18,West,270,0.0,0.0,70,0.00,,,0.00,WUHU21623XXSP,2013-11-08 01:43:00,
2013-11-07 20:48:00,40.6,31.6,30.19,West,270,0.0,0.0,70,0.00,,,0.00,WUHU21623XXSP,2013-11-08 01:48:00,
2013-11-07 20:53:00,40.3,31.6,30.19,WNW,292,0.0,0.0,71,0.00,,,0.00,WUHU21623XXSP,2013-11-08 01:53:00,
2013-11-07 20:58:00,40.1,31.4,30.19,NNW,337,0.0,0.0,71,0.00,,,0.00,WUHU21623XXSP,2013-11-08 01:58:00,
2013-11-07 21:03:00,39.9,31.2,30.19,NW,315,0.0,0.0,71,0.00,,,0.00,WUHU21623XXSP,2013-11-08 02:03:00,
2013-11-07 21:08:00,39.9,31.6,30.20,WNW,292,0.0,0.0,72,0.00,,,0.00,WUHU21623XXSP,2013-11-08 02:08:00,
2013-11-07 21:13:00,39.9,31.6,30.20,WNW,292,0.0,0.0,72,0.00,,,0.00,WUHU21623XXSP,2013-11-08 02:13:00,
2013-11-07 21:18:00,39.9,31.6,30.20,NNW,337,0.0,0.0,72,0.00,,,0.00,WUHU21623XXSP,2013-11-08 02:18:00,
2013-11-07 21:23:00,39.7,31.7,30.20,NW,315,0.0,0.0,73,0.00,,,0.00,WUHU21623XXSP,2013-11-08 02:23:00,
2013-11-07 21:28:00,39.6,31.6,30.21,WNW,292,0.0,0.0,73,0.00,,,0.00,WUHU21623XXSP,2013-11-08 02:28:00,
2013-11-07 21:33:00,39.6,31.9,30.21,NNW,337,0.0,0.0,74,0.00,,,0.00,WUHU21623XXSP,2013-11-08 02:33:00,
2013-11-07 21:38:00,39.4,31.7,30.21,NNW,337,0.0,0.0,74,0.00,,,0.00,WUHU21623XXSP,2013-11-08 02:38:00,
2013-11-07 21:43:00,39.0,31.4,30.21,WNW,292,0.0,0.0,74,0.00,,,0.00,WUHU21623XXSP,2013-11-08 02:43:00,
2013-11-07 21:48:00,39.0,31.4,30.21,WNW,292,0.0,0.0,74,0.00,,,0.00,WUHU21623XXSP,2013-11-08 02:48:00,
2013-11-07 21:53:00,39.0,31.4,30.21,North,0,0.0,0.0,74,0.00,,,0.00,WUHU21623XXSP,2013-11-08 02:53:00,
2013-11-07 21:58:00,39.0,31.4,30.21,NNW,337,0.0,0.0,74,0.00,,,0.00,WUHU21623XXSP,2013-11-08 02:58:00,
2013-11-07 22:03:00,38.8,31.2,30.21,NNW,337,0.0,0.0,74,0.00,,,0.00,WUHU21623XXSP,2013-11-08 03:03:00,
2013-11-07 22:08:00,38.8,31.2,30.22,NW,315,0.0,0.0,74,0.00,,,0.00,WUHU21623XXSP,2013-11-08 03:08:00,
2013-11-07 22:13:00,38.5,31.2,30.22,NW,315,0.0,0.0,75,0.00,,,0.00,WUHU21623XXSP,2013-11-08 03:13:00,
2013-11-07 22:18:00,38.5,31.2,30.22,NW,315,0.0,0.0,75,0.00,,,0.00,WUHU21623XXSP,2013-11-08 03:18:00,
2013-11-07 22:23:00,38.1,30.9,30.22,NW,315,0.0,0.0,75,0.00,,,0.00,WUHU21623XXSP,2013-11-08 03:23:00,
2013-11-07 22:28:00,38.1,30.9,30.22,WNW,292,0.0,0.0,75,0.00,,,0.00,WUHU21623XXSP,2013-11-08 03:28:00,
2013-11-07 22:33:00,37.9,30.7,30.22,NW,315,0.0,0.0,75,0.00,,,0.00,WUHU21623XXSP,2013-11-08 03:33:00,
2013-11-07 22:38:00,37.6,30.4,30.22,NW,315,0.0,0.0,75,0.00,,,0.00,WUHU21623XXSP,2013-11-08 03:38:00,
2013-11-07 22:43:00,37.6,30.4,30.22,WNW,292,0.0,0.0,75,0.00,,,0.00,WUHU21623XXSP,2013-11-08 03:43:00,
2013-11-07 22:48:00,37.4,30.2,30.23,WNW,292,0.0,0.0,75,0.00,,,0.00,WUHU21623XXSP,2013-11-08 03:48:00,
2013-11-07 22:53:00,37.0,29.8,30.23,NW,315,0.0,0.0,75,0.00,,,0.00,WUHU21623XXSP,2013-11-08 03:53:00,
2013-11-07 22:58:00,37.0,29.8,30.23,North,0,0.0,0.0,75,0.00,,,0.00,WUHU21623XXSP,2013-11-08 03:58:00,
2013-11-07 23:03:00,36.7,29.5,30.24,NNW,337,0.0,0.0,75,0.00,,,0.00,WUHU21623XXSP,2013-11-08 04:03:00,
2013-11-07 23:08:00,36.5,29.3,30.24,NW,315,0.0,0.0,75,0.00,,,0.00,WUHU21623XXSP,2013-11-08 04:08:00,
2013-11-07 23:13:00,36.3,29.1,30.24,WNW,292,0.0,0.0,75,0.00,,,0.00,WUHU21623XXSP,2013-11-08 04:13:00,
2013-11-07 23:18:00,36.1,28.9,30.24,NW,315,0.0,0.0,75,0.00,,,0.00,WUHU21623XXSP,2013-11-08 04:18:00,
2013-11-07 23:23:00,36.0,29.1,30.23,NW,315,0.0,0.0,76,0.00,,,0.00,WUHU21623XXSP,2013-11-08 04:23:00,
2013-11-07 23:28:00,36.0,29.1,30.24,NNW,337,0.0,0.0,76,0.00,,,0.00,WUHU21623XXSP,2013-11-08 04:28:00,
2013-11-07 23:33:00,35.8,28.9,30.24,WNW,292,0.0,0.0,76,0.00,,,0.00,WUHU21623XXSP,2013-11-08 04:33:00,
2013-11-07 23:38:00,35.4,28.5,30.24,West,270,0.0,0.0,76,0.00,,,0.00,WUHU21623XXSP,2013-11-08 04:38:00,
2013-11-07 23:43:00,35.4,28.9,30.24,WNW,292,0.0,0.0,77,0.00,,,0.00,WUHU21623XXSP,2013-11-08 04:43:00,
2013-11-07 23:48:00,35.2,28.7,30.24,WNW,292,0.0,0.0,77,0.00,,,0.00,WUHU21623XXSP,2013-11-08 04:48:00,
2013-11-07 23:53:00,34.9,28.3,30.24,WNW,292,0.0,0.0,77,0.00,,,0.00,WUHU21623XXSP,2013-11-08 04:53:00,
2013-11-07 23:58:00,34.9,28.3,30.24,WNW,292,0.0,0.0,77,0.00,,,0.00,WUHU21623XXSP,2013-11-08 04:58:00,